Time,TemperatureF,DewpointF,PressureIn,WindDirection,WindDirectionDegrees,WindSpeedMPH,WindSpeedGustMPH,Humidity,HourlyPrecipIn,Conditions,Clouds,dailyrainin,SolarRadiationWatts/m^2,SoftwareType,DateUTC
2013-03-24 00:00:00,22.1,18.0,30.13,NNW,342,14.0,14.0,84,0.00,,,0.02,0,Wunderground v.1.15,2013-03-24 05:00:00,
2013-03-24 00:06:00,22.1,18.0,30.13,North,360,5.0,14.0,84,0.00,,,0.00,0,Wunderground v.1.15,2013-03-24 05:06:00,
2013-03-24 00:11:00,22.0,17.9,30.13,NNW,332,7.0,9.0,84,0.00,,,0.00,0,Wunderground v.1.15,2013-03-24 05:11:00,
2013-03-24 00:16:00,21.9,17.8,30.13,NNW,339,7.0,11.0,84,0.00,,,0.00,0,Wunderground v.1.15,2013-03-24 05:16:00,
2013-03-24 00:22:00,21.8,17.7,30.13,NNW,342,8.0,14.0,84,0.00,,,0.00,0,Wunderground v.1.15,2013-03-24 05:22:00,
2013-03-24 00:27:00,21.7,17.6,30.14,NNW,348,10.0,14.0,84,0.00,,,0.00,0,Wunderground v.1.15,2013-03-24 05:27:00,
2013-03-24 00:32:00,21.6,17.5,30.14,North,5,13.0,13.0,84,0.00,,,0.00,0,Wunderground v.1.15,2013-03-24 05:32:00,
2013-03-24 00:37:00,21.5,17.4,30.14,NNW,343,9.0,13.0,84,0.00,,,0.00,0,Wunderground v.1.15,2013-03-24 05:37:00,
2013-03-24 00:42:00,21.3,17.2,30.14,NNW,333,8.0,11.0,84,0.00,,,0.00,0,Wunderground v.1.15,2013-03-24 05:42:00,
2013-03-24 00:48:00,21.2,17.4,30.14,North,355,12.0,12.0,85,0.00,,,0.00,0,Wunderground v.1.15,2013-03-24 05:48:00,
2013-03-24 00:53:00,21.1,17.3,30.14,NNW,347,10.0,10.0,85,0.00,,,0.00,0,Wunderground v.1.15,2013-03-24 05:53:00,
2013-03-24 00:59:00,21.0,17.2,30.14,NNW,331,5.0,11.0,85,0.00,,,0.00,0,Wunderground v.1.15,2013-03-24 05:59:00,
2013-03-24 01:04:00,20.9,17.1,30.14,North,355,7.0,12.0,85,0.00,,,0.00,0,Wunderground v.1.15,2013-03-24 06:04:00,
2013-03-24 01:09:00,20.8,17.0,30.14,North,355,9.0,12.0,85,0.00,,,0.00,0,Wunderground v.1.15,2013-03-24 06:09:00,
2013-03-24 01:15:00,20.9,18.9,30.14,North,355,7.0,13.0,92,0.00,,,0.00,0,Wunderground v.1.15,2013-03-24 06:15:00,
2013-03-24 01:20:00,20.8,17.0,30.14,NNW,334,6.0,9.0,85,0.00,,,0.00,0,Wunderground v.1.15,2013-03-24 06:20:00,
2013-03-24 01:25:00,20.7,16.9,30.14,North,5,10.0,10.0,85,0.00,,,0.00,0,Wunderground v.1.15,2013-03-24 06:25:00,
2013-03-24 01:30:00,20.6,16.8,30.14,NW,321,6.0,8.0,85,0.00,,,0.00,0,Wunderground v.1.15,2013-03-24 06:30:00,
2013-03-24 01:36:00,20.4,16.6,30.14,NNW,344,4.0,9.0,85,0.00,,,0.00,0,Wunderground v.1.15,2013-03-24 06:36:00,
2013-03-24 01:41:00,20.2,16.4,30.14,NNW,335,3.0,6.0,85,0.00,,,0.00,0,Wunderground v.1.15,2013-03-24 06:41:00,
2013-03-24 01:47:00,20.1,16.3,30.14,NNW,331,8.0,8.0,85,0.00,,,0.00,0,Wunderground v.1.15,2013-03-24 06:47:00,
2013-03-24 01:52:00,20.0,16.5,30.15,North,351,5.0,8.0,86,0.00,,,0.00,0,Wunderground v.1.15,2013-03-24 06:52:00,
2013-03-24 01:57:00,20.0,16.5,30.15,North,360,7.0,9.0,86,0.00,,,0.00,0,Wunderground v.1.15,2013-03-24 06:57:00,
2013-03-24 02:02:00,19.9,16.4,30.15,North,350,9.0,11.0,86,0.00,,,0.00,0,Wunderground v.1.15,2013-03-24 07:02:00,
2013-03-24 02:07:00,20.0,16.5,30.15,NNW,331,7.0,12.0,86,0.00,,,0.00,0,Wunderground v.1.15,2013-03-24 07:07:00,
2013-03-24 02:12:00,19.9,16.4,30.14,NW,316,8.0,14.0,86,0.00,,,0.00,0,Wunderground v.1.15,2013-03-24 07:12:00,
2013-03-24 02:17:00,20.0,16.5,30.15,NNW,327,8.0,14.0,86,0.00,,,0.00,0,Wunderground v.1.15,2013-03-24 07:17:00,
2013-03-24 02:22:00,19.9,16.4,30.14,NNW,327,7.0,12.0,86,0.00,,,0.00,0,Wunderground v.1.15,2013-03-24 07:22:00,
2013-03-24 02:27:00,20.0,16.5,30.14,NNW,342,6.0,13.0,86,0.00,,,0.00,0,Wunderground v.1.15,2013-03-24 07:27:00,
2013-03-24 02:32:00,19.9,16.7,30.15,North,350,6.0,12.0,87,0.00,,,0.00,0,Wunderground v.1.15,2013-03-24 07:32:00,
2013-03-24 02:37:00,19.8,16.3,30.14,North,355,12.0,13.0,86,0.00,,,0.00,0,Wunderground v.1.15,2013-03-24 07:37:00,
2013-03-24 02:42:00,19.7,16.2,30.14,NW,317,7.0,11.0,86,0.00,,,0.00,0,Wunderground v.1.15,2013-03-24 07:42:00,
2013-03-24 02:47:00,19.7,16.5,30.14,NNW,329,6.0,13.0,87,0.00,,,0.00,0,Wunderground v.1.15,2013-03-24 07:47:00,
2013-03-24 02:52:00,19.5,16.3,30.14,NNW,329,10.0,10.0,87,0.00,,,0.00,0,Wunderground v.1.15,2013-03-24 07:52:00,
2013-03-24 02:57:00,19.4,16.2,30.14,NNW,331,7.0,10.0,87,0.00,,,0.00,0,Wunderground v.1.15,2013-03-24 07:57:00,
2013-03-24 03:02:00,19.4,16.2,30.14,NNW,340,7.0,7.0,87,0.00,,,0.00,0,Wunderground v.1.15,2013-03-24 08:02:00,
2013-03-24 03:07:00,19.3,16.1,30.13,North,360,10.0,14.0,87,0.00,,,0.00,0,Wunderground v.1.15,2013-03-24 08:07:00,
2013-03-24 03:12:00,19.3,16.1,30.13,NNW,333,12.0,13.0,87,0.00,,,0.00,0,Wunderground v.1.15,2013-03-24 08:12:00,
2013-03-24 03:17:00,19.2,16.0,30.13,NNW,336,9.0,13.0,87,0.00,,,0.00,0,Wunderground v.1.15,2013-03-24 08:17:00,
2013-03-24 03:22:00,19.1,15.9,30.13,NNW,345,7.0,14.0,87,0.00,,,0.00,0,Wunderground v.1.15,2013-03-24 08:22:00,
2013-03-24 03:27:00,18.9,15.7,30.13,NNW,334,9.0,14.0,87,0.00,,,0.00,0,Wunderground v.1.15,2013-03-24 08:27:00,
2013-03-24 03:33:00,18.7,15.5,30.13,NW,324,4.0,11.0,87,0.00,,,0.00,0,Wunderground v.1.15,2013-03-24 08:33:00,
2013-03-24 03:38:00,18.7,15.5,30.12,North,355,5.0,15.0,87,0.00,,,0.00,0,Wunderground v.1.15,2013-03-24 08:38:00,
2013-03-24 03:43:00,18.7,15.5,30.12,NNW,338,11.0,14.0,87,0.00,,,0.00,0,Wunderground v.1.15,2013-03-24 08:43:00,
2013-03-24 03:48:00,18.9,15.7,30.12,NNW,338,7.0,14.0,87,0.00,,,0.00,0,Wunderground v.1.15,2013-03-24 08:48:00,
2013-03-24 03:53:00,18.9,15.7,30.12,NNW,344,7.0,14.0,87,0.00,,,0.00,0,Wunderground v.1.15,2013-03-24 08:53:00,
2013-03-24 03:58:00,18.9,15.7,30.12,North,355,9.0,19.0,87,0.00,,,0.00,0,Wunderground v.1.15,2013-03-24 08:58:00,
2013-03-24 04:03:00,18.8,15.6,30.12,NNW,334,9.0,12.0,87,0.00,,,0.00,0,Wunderground v.1.15,2013-03-24 09:03:00,
2013-03-24 04:08:00,18.7,15.5,30.12,NNW,341,10.0,15.0,87,0.00,,,0.00,0,Wunderground v.1.15,2013-03-24 09:08:00,
2013-03-24 04:13:00,18.6,15.4,30.12,NNW,345,12.0,13.0,87,0.00,,,0.00,0,Wunderground v.1.15,2013-03-24 09:13:00,
2013-03-24 04:18:00,18.5,15.3,30.11,NNW,346,13.0,16.0,87,0.00,,,0.00,0,Wunderground v.1.15,2013-03-24 09:18:00,
2013-03-24 04:23:00,18.4,15.2,30.11,NW,325,8.0,13.0,87,0.00,,,0.00,0,Wunderground v.1.15,2013-03-24 09:23:00,
2013-03-24 04:28:00,18.3,14.8,30.12,NNW,346,11.0,17.0,86,0.00,,,0.00,0,Wunderground v.1.15,2013-03-24 09:28:00,
2013-03-24 04:33:00,18.2,14.7,30.12,NNW,342,8.0,15.0,86,0.00,,,0.00,0,Wunderground v.1.15,2013-03-24 09:33:00,
2013-03-24 04:38:00,18.0,14.5,30.11,NNW,344,9.0,15.0,86,0.00,,,0.00,0,Wunderground v.1.15,2013-03-24 09:38:00,
2013-03-24 04:43:00,18.0,14.5,30.11,NNW,329,7.0,14.0,86,0.00,,,0.00,0,Wunderground v.1.15,2013-03-24 09:43:00,
2013-03-24 04:48:00,17.9,14.4,30.12,NW,319,10.0,14.0,86,0.00,,,0.00,0,Wunderground v.1.15,2013-03-24 09:48:00,
2013-03-24 04:53:00,17.7,14.2,30.11,NW,324,10.0,14.0,86,0.00,,,0.00,0,Wunderground v.1.15,2013-03-24 09:53:00,
2013-03-24 04:58:00,17.5,14.0,30.11,NW,315,9.0,14.0,86,0.00,,,0.00,0,Wunderground v.1.15,2013-03-24 09:58:00,
2013-03-24 05:03:00,17.3,13.8,30.11,North,355,8.0,10.0,86,0.00,,,0.00,0,Wunderground v.1.15,2013-03-24 10:03:00,
2013-03-24 05:08:00,17.2,14.0,30.11,North,355,12.0,14.0,87,0.00,,,0.00,0,Wunderground v.1.15,2013-03-24 10:08:00,
2013-03-24 05:13:00,17.2,13.7,30.11,North,351,7.0,11.0,86,0.00,,,0.00,0,Wunderground v.1.15,2013-03-24 10:13:00,
2013-03-24 05:18:00,17.2,14.0,30.11,NW,311,8.0,11.0,87,0.00,,,0.00,0,Wunderground v.1.15,2013-03-24 10:18:00,
2013-03-24 05:23:00,17.0,13.8,30.11,NNW,340,7.0,10.0,87,0.00,,,0.00,0,Wunderground v.1.15,2013-03-24 10:23:00,
2013-03-24 05:28:00,17.0,13.8,30.11,NNW,336,9.0,11.0,87,0.00,,,0.00,0,Wunderground v.1.15,2013-03-24 10:28:00,
2013-03-24 05:33:00,17.1,13.9,30.11,NW,312,9.0,13.0,87,0.00,,,0.00,0,Wunderground v.1.15,2013-03-24 10:33:00,
2013-03-24 05:38:00,17.0,13.8,30.11,NW,325,10.0,13.0,87,0.00,,,0.00,0,Wunderground v.1.15,2013-03-24 10:38:00,
2013-03-24 05:43:00,17.0,13.8,30.11,NNW,331,13.0,14.0,87,0.00,,,0.00,0,Wunderground v.1.15,2013-03-24 10:43:00,
2013-03-24 05:48:00,16.8,13.6,30.11,NNW,333,9.0,14.0,87,0.00,,,0.00,0,Wunderground v.1.15,2013-03-24 10:48:00,
2013-03-24 05:53:00,16.6,13.1,30.11,NNW,343,5.0,12.0,86,0.00,,,0.00,0,Wunderground v.1.15,2013-03-24 10:53:00,
2013-03-24 05:58:00,16.5,13.0,30.11,NNW,338,8.0,12.0,86,0.00,,,0.00,0,Wunderground v.1.15,2013-03-24 10:58:00,
2013-03-24 06:03:00,16.3,13.1,30.11,NW,323,7.0,11.0,87,0.00,,,0.00,0,Wunderground v.1.15,2013-03-24 11:03:00,
2013-03-24 06:08:00,16.2,13.0,30.11,NW,315,6.0,11.0,87,0.00,,,0.00,0,Wunderground v.1.15,2013-03-24 11:08:00,
2013-03-24 06:13:00,16.1,12.9,30.11,NNW,332,9.0,10.0,87,0.00,,,0.00,0,Wunderground v.1.15,2013-03-24 11:13:00,
2013-03-24 06:18:00,15.9,12.7,30.11,NW,313,5.0,12.0,87,0.00,,,0.00,0,Wunderground v.1.15,2013-03-24 11:18:00,
2013-03-24 06:24:00,15.9,12.7,30.12,NW,304,3.0,11.0,87,0.00,,,0.00,0,Wunderground v.1.15,2013-03-24 11:24:00,
2013-03-24 06:29:00,15.8,12.6,30.12,NW,321,3.0,12.0,87,0.00,,,0.00,0,Wunderground v.1.15,2013-03-24 11:29:00,
2013-03-24 06:34:00,15.9,12.7,30.12,WNW,294,8.0,12.0,87,0.00,,,0.00,0,Wunderground v.1.15,2013-03-24 11:34:00,
2013-03-24 06:39:00,15.8,12.6,30.12,NNW,336,7.0,13.0,87,0.00,,,0.00,0,Wunderground v.1.15,2013-03-24 11:39:00,
2013-03-24 06:44:00,15.8,12.6,30.12,NNW,339,4.0,11.0,87,0.00,,,0.00,0,Wunderground v.1.15,2013-03-24 11:44:00,
2013-03-24 06:49:00,15.7,12.5,30.12,WNW,286,7.0,11.0,87,0.00,,,0.00,0,Wunderground v.1.15,2013-03-24 11:49:00,
2013-03-24 06:54:00,15.6,12.4,30.12,NW,326,9.0,11.0,87,0.00,,,0.00,0,Wunderground v.1.15,2013-03-24 11:54:00,
2013-03-24 06:59:00,15.4,12.2,30.12,NW,304,4.0,13.0,87,0.00,,,0.00,0,Wunderground v.1.15,2013-03-24 11:59:00,
2013-03-24 07:04:00,15.4,12.2,30.12,NW,323,7.0,12.0,87,0.00,,,0.00,0,Wunderground v.1.15,2013-03-24 12:04:00,
2013-03-24 07:09:00,15.3,12.1,30.12,NW,323,7.0,12.0,87,0.00,,,0.00,0,Wunderground v.1.15,2013-03-24 12:09:00,
2013-03-24 07:14:00,15.1,11.9,30.12,NNW,336,6.0,11.0,87,0.00,,,0.00,0,Wunderground v.1.15,2013-03-24 12:14:00,
2013-03-24 07:19:00,15.1,11.9,30.12,NW,312,5.0,11.0,87,0.00,,,0.00,0,Wunderground v.1.15,2013-03-24 12:19:00,
2013-03-24 07:24:00,15.0,11.8,30.12,NW,311,4.0,8.0,87,0.00,,,0.00,0,Wunderground v.1.15,2013-03-24 12:24:00,
2013-03-24 07:29:00,14.7,11.5,30.13,NW,317,7.0,9.0,87,0.00,,,0.00,0,Wunderground v.1.15,2013-03-24 12:29:00,
2013-03-24 07:34:00,14.5,11.3,30.13,NW,314,4.0,8.0,87,0.00,,,0.00,5,Wunderground v.1.15,2013-03-24 12:34:00,
2013-03-24 07:39:00,14.4,11.2,30.13,WNW,298,4.0,11.0,87,0.00,,,0.00,9,Wunderground v.1.15,2013-03-24 12:39:00,
2013-03-24 07:44:00,14.3,11.1,30.13,NNW,338,6.0,7.0,87,0.00,,,0.00,12,Wunderground v.1.15,2013-03-24 12:44:00,
2013-03-24 07:49:00,14.0,10.8,30.13,NW,318,4.0,8.0,87,0.00,,,0.00,18,Wunderground v.1.15,2013-03-24 12:49:00,
2013-03-24 07:54:00,13.7,10.5,30.13,WNW,303,5.0,9.0,87,0.00,,,0.00,26,Wunderground v.1.15,2013-03-24 12:54:00,
2013-03-24 07:59:00,13.7,10.5,30.13,NW,312,6.0,9.0,87,0.00,,,0.00,35,Wunderground v.1.15,2013-03-24 12:59:00,
2013-03-24 08:04:00,13.7,10.5,30.13,NW,311,4.0,10.0,87,0.00,,,0.00,47,Wunderground v.1.15,2013-03-24 13:04:00,
2013-03-24 08:09:00,13.8,10.6,30.13,NW,312,5.0,10.0,87,0.00,,,0.00,58,Wunderground v.1.15,2013-03-24 13:09:00,
2013-03-24 08:14:00,13.8,10.6,30.13,North,355,8.0,11.0,87,0.00,,,0.00,70,Wunderground v.1.15,2013-03-24 13:14:00,
2013-03-24 08:19:00,14.0,10.8,30.13,NW,315,8.0,11.0,87,0.00,,,0.00,88,Wunderground v.1.15,2013-03-24 13:19:00,
2013-03-24 08:24:00,14.2,11.0,30.13,NW,311,5.0,11.0,87,0.00,,,0.00,105,Wunderground v.1.15,2013-03-24 13:24:00,
2013-03-24 08:29:00,14.4,11.2,30.13,NW,311,9.0,13.0,87,0.00,,,0.00,125,Wunderground v.1.15,2013-03-24 13:29:00,
2013-03-24 08:34:00,14.6,11.2,30.13,NW,306,6.0,11.0,86,0.00,,,0.00,146,Wunderground v.1.15,2013-03-24 13:34:00,
2013-03-24 08:39:00,14.8,11.4,30.13,NW,306,7.0,11.0,86,0.00,,,0.00,171,Wunderground v.1.15,2013-03-24 13:39:00,
2013-03-24 08:44:00,14.9,11.5,30.13,NW,310,6.0,11.0,86,0.00,,,0.00,193,Wunderground v.1.15,2013-03-24 13:44:00,
2013-03-24 08:49:00,15.2,11.5,30.13,NW,307,3.0,14.0,85,0.00,,,0.00,211,Wunderground v.1.15,2013-03-24 13:49:00,
2013-03-24 08:54:00,15.4,11.7,30.13,NNW,334,5.0,13.0,85,0.00,,,0.00,234,Wunderground v.1.15,2013-03-24 13:54:00,
2013-03-24 08:59:00,15.6,11.9,30.13,NW,308,5.0,14.0,85,0.00,,,0.00,255,Wunderground v.1.15,2013-03-24 13:59:00,
2013-03-24 09:04:00,15.8,11.8,30.13,NW,316,9.0,15.0,84,0.00,,,0.00,272,Wunderground v.1.15,2013-03-24 14:04:00,
2013-03-24 09:09:00,16.1,12.1,30.13,WNW,299,10.0,15.0,84,0.00,,,0.00,288,Wunderground v.1.15,2013-03-24 14:09:00,
2013-03-24 09:14:00,16.4,12.4,30.13,NW,315,10.0,15.0,84,0.00,,,0.00,304,Wunderground v.1.15,2013-03-24 14:14:00,
2013-03-24 09:19:00,16.6,12.3,30.13,NNW,334,12.0,15.0,83,0.00,,,0.00,320,Wunderground v.1.15,2013-03-24 14:19:00,
2013-03-24 09:24:00,16.8,12.5,30.12,WNW,297,9.0,13.0,83,0.00,,,0.00,334,Wunderground v.1.15,2013-03-24 14:24:00,
2013-03-24 09:29:00,17.1,12.6,30.12,NNW,337,8.0,13.0,82,0.00,,,0.00,352,Wunderground v.1.15,2013-03-24 14:29:00,
2013-03-24 09:34:00,17.3,12.7,30.12,NNW,338,5.0,15.0,82,0.00,,,0.00,367,Wunderground v.1.15,2013-03-24 14:34:00,
2013-03-24 09:39:00,17.3,12.5,30.12,NNW,333,8.0,15.0,81,0.00,,,0.00,381,Wunderground v.1.15,2013-03-24 14:39:00,
2013-03-24 09:44:00,17.7,12.9,30.12,WNW,297,10.0,20.0,81,0.00,,,0.00,399,Wunderground v.1.15,2013-03-24 14:44:00,
2013-03-24 09:49:00,17.7,12.9,30.12,NW,314,8.0,20.0,81,0.00,,,0.00,415,Wunderground v.1.15,2013-03-24 14:49:00,
2013-03-24 09:54:00,17.7,12.6,30.12,NW,317,11.0,19.0,80,0.00,,,0.00,429,Wunderground v.1.15,2013-03-24 14:54:00,
2013-03-24 09:59:00,17.8,12.7,30.12,NW,317,12.0,19.0,80,0.00,,,0.00,448,Wunderground v.1.15,2013-03-24 14:59:00,
2013-03-24 10:04:00,18.0,12.9,30.12,WNW,287,10.0,15.0,80,0.00,,,0.00,464,Wunderground v.1.15,2013-03-24 15:04:00,
2013-03-24 10:09:00,18.0,12.9,30.12,NNW,330,14.0,16.0,80,0.00,,,0.00,480,Wunderground v.1.15,2013-03-24 15:09:00,
2013-03-24 10:14:00,18.4,13.3,30.12,WNW,292,11.0,17.0,80,0.00,,,0.00,494,Wunderground v.1.15,2013-03-24 15:14:00,
2013-03-24 10:19:00,18.2,12.8,30.12,NNW,335,15.0,17.0,79,0.00,,,0.00,510,Wunderground v.1.15,2013-03-24 15:19:00,
2013-03-24 10:24:00,18.7,13.3,30.12,NW,309,10.0,19.0,79,0.00,,,0.00,524,Wunderground v.1.15,2013-03-24 15:24:00,
2013-03-24 10:29:00,19.0,13.6,30.12,WNW,299,12.0,19.0,79,0.00,,,0.00,540,Wunderground v.1.15,2013-03-24 15:29:00,
2013-03-24 10:34:00,19.0,13.6,30.12,NNW,336,15.0,16.0,79,0.00,,,0.00,554,Wunderground v.1.15,2013-03-24 15:34:00,
2013-03-24 10:39:00,19.0,13.3,30.12,NNW,338,6.0,18.0,78,0.00,,,0.00,570,Wunderground v.1.15,2013-03-24 15:39:00,
2013-03-24 10:44:00,19.4,13.7,30.11,NW,306,9.0,19.0,78,0.00,,,0.00,571,Wunderground v.1.15,2013-03-24 15:44:00,
2013-03-24 10:49:00,19.4,13.7,30.11,NW,311,7.0,19.0,78,0.00,,,0.00,592,Wunderground v.1.15,2013-03-24 15:49:00,
2013-03-24 10:54:00,19.8,14.0,30.11,NW,309,6.0,16.0,78,0.00,,,0.00,603,Wunderground v.1.15,2013-03-24 15:54:00,
2013-03-24 10:59:00,19.7,13.7,30.11,NNW,346,9.0,19.0,77,0.00,,,0.00,617,Wunderground v.1.15,2013-03-24 15:59:00,
2013-03-24 11:04:00,20.2,14.4,30.11,NNW,335,12.0,21.0,78,0.00,,,0.00,633,Wunderground v.1.15,2013-03-24 16:04:00,
2013-03-24 11:09:00,19.7,13.4,30.11,NNW,338,15.0,23.0,76,0.00,,,0.00,649,Wunderground v.1.15,2013-03-24 16:09:00,
2013-03-24 11:14:00,20.2,14.1,30.11,NNW,335,15.0,22.0,77,0.00,,,0.00,659,Wunderground v.1.15,2013-03-24 16:14:00,
2013-03-24 11:19:00,20.3,14.2,30.11,NW,321,13.0,22.0,77,0.00,,,0.00,671,Wunderground v.1.15,2013-03-24 16:19:00,
2013-03-24 11:24:00,20.9,14.8,30.11,NW,313,8.0,18.0,77,0.00,,,0.00,682,Wunderground v.1.15,2013-03-24 16:24:00,
2013-03-24 11:29:00,20.6,14.2,30.11,NW,326,10.0,19.0,76,0.00,,,0.00,698,Wunderground v.1.15,2013-03-24 16:29:00,
2013-03-24 11:34:00,20.9,14.5,30.11,NNW,346,9.0,22.0,76,0.00,,,0.00,707,Wunderground v.1.15,2013-03-24 16:34:00,
2013-03-24 11:39:00,21.3,14.6,30.11,WNW,293,14.0,22.0,75,0.00,,,0.00,712,Wunderground v.1.15,2013-03-24 16:39:00,
2013-03-24 11:44:00,21.0,14.6,30.11,WNW,283,14.0,20.0,76,0.00,,,0.00,726,Wunderground v.1.15,2013-03-24 16:44:00,
2013-03-24 11:49:00,21.2,14.8,30.12,NNW,340,11.0,20.0,76,0.00,,,0.00,726,Wunderground v.1.15,2013-03-24 16:49:00,
2013-03-24 11:54:00,21.1,14.7,30.12,North,349,8.0,18.0,76,0.00,,,0.00,749,Wunderground v.1.15,2013-03-24 16:54:00,
2013-03-24 11:59:00,21.3,14.6,30.12,NNW,346,14.0,20.0,75,0.00,,,0.00,766,Wunderground v.1.15,2013-03-24 16:59:00,
2013-03-24 12:04:00,21.8,15.1,30.12,North,355,16.0,20.0,75,0.00,,,0.00,705,Wunderground v.1.15,2013-03-24 17:04:00,
2013-03-24 12:09:00,21.8,15.1,30.12,NNW,332,11.0,21.0,75,0.00,,,0.00,833,Wunderground v.1.15,2013-03-24 17:09:00,
2013-03-24 12:14:00,22.0,14.7,30.12,NW,326,13.0,20.0,73,0.00,,,0.00,810,Wunderground v.1.15,2013-03-24 17:14:00,
2013-03-24 12:19:00,22.0,15.0,30.12,NNW,340,10.0,22.0,74,0.00,,,0.00,824,Wunderground v.1.15,2013-03-24 17:19:00,
2013-03-24 12:24:00,22.4,15.4,30.12,NNW,337,12.0,22.0,74,0.00,,,0.00,826,Wunderground v.1.15,2013-03-24 17:24:00,
2013-03-24 12:29:00,22.6,15.2,30.11,NNW,336,18.0,22.0,73,0.00,,,0.00,812,Wunderground v.1.15,2013-03-24 17:29:00,
2013-03-24 12:34:00,22.6,15.9,30.12,WNW,300,11.0,25.0,75,0.00,,,0.00,875,Wunderground v.1.15,2013-03-24 17:34:00,
2013-03-24 12:39:00,22.4,15.4,30.11,NNW,339,7.0,25.0,74,0.00,,,0.00,898,Wunderground v.1.15,2013-03-24 17:39:00,
2013-03-24 12:44:00,22.9,16.2,30.11,NNW,338,10.0,23.0,75,0.00,,,0.00,810,Wunderground v.1.15,2013-03-24 17:44:00,
2013-03-24 12:49:00,23.2,16.1,30.11,NNW,327,15.0,23.0,74,0.00,,,0.00,860,Wunderground v.1.15,2013-03-24 17:49:00,
2013-03-24 12:54:00,22.6,15.2,30.11,NW,306,15.0,23.0,73,0.00,,,0.00,856,Wunderground v.1.15,2013-03-24 17:54:00,
2013-03-24 12:59:00,22.7,15.3,30.11,West,281,11.0,24.0,73,0.00,,,0.00,865,Wunderground v.1.15,2013-03-24 17:59:00,
2013-03-24 13:04:00,23.4,16.6,30.11,NNW,329,10.0,22.0,75,0.00,,,0.00,874,Wunderground v.1.15,2013-03-24 18:04:00,
2013-03-24 13:09:00,23.0,15.3,30.11,NW,316,7.0,24.0,72,0.00,,,0.00,877,Wunderground v.1.15,2013-03-24 18:09:00,
2013-03-24 13:14:00,23.7,16.6,30.11,NNW,329,11.0,20.0,74,0.00,,,0.00,912,Wunderground v.1.15,2013-03-24 18:14:00,
2013-03-24 13:19:00,23.6,16.5,30.10,NNW,331,19.0,23.0,74,0.00,,,0.00,902,Wunderground v.1.15,2013-03-24 18:19:00,
2013-03-24 13:24:00,23.3,16.2,30.10,NW,316,8.0,23.0,74,0.00,,,0.00,881,Wunderground v.1.15,2013-03-24 18:24:00,
2013-03-24 13:29:00,23.4,16.0,30.10,NW,312,23.0,23.0,73,0.00,,,0.00,937,Wunderground v.1.15,2013-03-24 18:29:00,
2013-03-24 13:34:00,23.6,16.2,30.10,WNW,289,13.0,22.0,73,0.00,,,0.00,998,Wunderground v.1.15,2013-03-24 18:34:00,
2013-03-24 13:39:00,24.7,17.9,30.10,NW,311,7.0,22.0,75,0.00,,,0.00,916,Wunderground v.1.15,2013-03-24 18:39:00,
2013-03-24 13:44:00,23.9,16.5,30.10,WNW,290,12.0,21.0,73,0.00,,,0.00,933,Wunderground v.1.15,2013-03-24 18:44:00,
2013-03-24 13:49:00,24.3,17.2,30.10,WNW,293,14.0,26.0,74,0.00,,,0.00,991,Wunderground v.1.15,2013-03-24 18:49:00,
2013-03-24 13:54:00,24.3,17.2,30.10,NNW,342,18.0,24.0,74,0.00,,,0.00,1093,Wunderground v.1.15,2013-03-24 18:54:00,
2013-03-24 13:59:00,23.6,15.9,30.10,NW,308,10.0,26.0,72,0.00,,,0.00,506,Wunderground v.1.15,2013-03-24 18:59:00,
2013-03-24 14:04:00,24.4,17.9,30.10,NNW,327,9.0,21.0,76,0.00,,,0.00,485,Wunderground v.1.15,2013-03-24 19:04:00,
2013-03-24 14:09:00,24.8,17.7,30.09,NW,326,13.0,24.0,74,0.00,,,0.00,561,Wunderground v.1.15,2013-03-24 19:09:00,
2013-03-24 14:14:00,24.7,17.6,30.09,West,281,11.0,24.0,74,0.00,,,0.00,617,Wunderground v.1.15,2013-03-24 19:14:00,
2013-03-24 14:19:00,24.3,16.6,30.09,NW,304,13.0,25.0,72,0.00,,,0.00,1046,Wunderground v.1.15,2013-03-24 19:19:00,
2013-03-24 14:24:00,24.3,16.6,30.09,NW,322,14.0,23.0,72,0.00,,,0.00,912,Wunderground v.1.15,2013-03-24 19:24:00,
2013-03-24 14:29:00,24.6,17.2,30.09,NNW,327,21.0,23.0,73,0.00,,,0.00,1039,Wunderground v.1.15,2013-03-24 19:29:00,
2013-03-24 14:34:00,25.0,17.9,30.08,WNW,292,9.0,21.0,74,0.00,,,0.00,947,Wunderground v.1.15,2013-03-24 19:34:00,
2013-03-24 14:39:00,24.7,17.3,30.09,NNW,341,10.0,22.0,73,0.00,,,0.00,360,Wunderground v.1.15,2013-03-24 19:39:00,
2013-03-24 14:44:00,24.3,17.2,30.09,NW,319,14.0,19.0,74,0.00,,,0.00,387,Wunderground v.1.15,2013-03-24 19:44:00,
2013-03-24 14:49:00,25.2,17.8,30.09,WNW,287,12.0,24.0,73,0.00,,,0.00,1136,Wunderground v.1.15,2013-03-24 19:49:00,
2013-03-24 14:54:00,26.0,19.5,30.09,WNW,298,9.0,23.0,76,0.00,,,0.00,550,Wunderground v.1.15,2013-03-24 19:54:00,
2013-03-24 14:59:00,25.0,17.6,30.08,NW,305,7.0,23.0,73,0.00,,,0.00,327,Wunderground v.1.15,2013-03-24 19:59:00,
2013-03-24 15:04:00,25.3,18.8,30.09,NNW,334,14.0,21.0,76,0.00,,,0.00,918,Wunderground v.1.15,2013-03-24 20:04:00,
2013-03-24 15:09:00,25.9,19.1,30.08,NW,308,16.0,23.0,75,0.00,,,0.00,928,Wunderground v.1.15,2013-03-24 20:09:00,
2013-03-24 15:14:00,25.5,18.7,30.09,NNW,342,17.0,18.0,75,0.00,,,0.00,466,Wunderground v.1.15,2013-03-24 20:14:00,
2013-03-24 15:19:00,24.5,16.8,30.08,North,5,13.0,23.0,72,0.00,,,0.00,403,Wunderground v.1.15,2013-03-24 20:19:00,
2013-03-24 15:24:00,24.2,17.1,30.09,NNW,345,13.0,18.0,74,0.00,,,0.00,366,Wunderground v.1.15,2013-03-24 20:24:00,
2013-03-24 15:29:00,24.2,17.4,30.08,NNW,348,10.0,22.0,75,0.00,,,0.00,371,Wunderground v.1.15,2013-03-24 20:29:00,
2013-03-24 15:34:00,24.3,17.2,30.08,NW,325,14.0,20.0,74,0.00,,,0.00,316,Wunderground v.1.15,2013-03-24 20:34:00,
2013-03-24 15:39:00,24.2,17.7,30.08,NW,306,11.0,20.0,76,0.00,,,0.00,443,Wunderground v.1.15,2013-03-24 20:39:00,
2013-03-24 15:44:00,24.2,17.7,30.08,NW,319,17.0,22.0,76,0.00,,,0.00,563,Wunderground v.1.15,2013-03-24 20:44:00,
2013-03-24 15:49:00,25.8,19.3,30.08,NW,323,16.0,25.0,76,0.00,,,0.00,1027,Wunderground v.1.15,2013-03-24 20:49:00,
2013-03-24 15:54:00,26.0,18.8,30.08,NW,306,7.0,17.0,74,0.00,,,0.00,559,Wunderground v.1.15,2013-03-24 20:54:00,
2013-03-24 15:59:00,25.7,18.2,30.08,NNW,340,15.0,21.0,73,0.00,,,0.00,355,Wunderground v.1.15,2013-03-24 20:59:00,
2013-03-24 16:04:00,24.2,17.7,30.09,NW,320,17.0,23.0,76,0.00,,,0.00,301,Wunderground v.1.15,2013-03-24 21:04:00,
2013-03-24 16:09:00,24.0,17.5,30.09,NW,324,12.0,23.0,76,0.00,,,0.00,432,Wunderground v.1.15,2013-03-24 21:09:00,
2013-03-24 16:14:00,25.0,19.1,30.09,NNW,338,7.0,22.0,78,0.00,,,0.00,424,Wunderground v.1.15,2013-03-24 21:14:00,
2013-03-24 16:19:00,25.1,18.9,30.09,WNW,300,9.0,22.0,77,0.00,,,0.00,875,Wunderground v.1.15,2013-03-24 21:19:00,
2013-03-24 16:24:00,25.3,18.8,30.09,North,355,8.0,24.0,76,0.00,,,0.00,309,Wunderground v.1.15,2013-03-24 21:24:00,
2013-03-24 16:29:00,24.4,18.8,30.09,NNW,343,14.0,24.0,79,0.00,,,0.00,373,Wunderground v.1.15,2013-03-24 21:29:00,
2013-03-24 16:34:00,24.0,18.4,30.09,NW,319,10.0,24.0,79,0.00,,,0.00,243,Wunderground v.1.15,2013-03-24 21:34:00,
2013-03-24 16:39:00,23.8,18.2,30.09,NNW,334,14.0,24.0,79,0.00,,,0.00,529,Wunderground v.1.15,2013-03-24 21:39:00,
2013-03-24 16:44:00,24.4,18.8,30.09,NNW,339,11.0,20.0,79,0.00,,,0.00,610,Wunderground v.1.15,2013-03-24 21:44:00,
2013-03-24 16:49:00,25.0,18.8,30.09,NW,312,7.0,20.0,77,0.00,,,0.00,663,Wunderground v.1.15,2013-03-24 21:49:00,
2013-03-24 16:54:00,25.2,18.4,30.09,WNW,296,8.0,22.0,75,0.00,,,0.00,677,Wunderground v.1.15,2013-03-24 21:54:00,
2013-03-24 16:59:00,25.3,19.4,30.09,NW,325,13.0,22.0,78,0.00,,,0.00,230,Wunderground v.1.15,2013-03-24 21:59:00,
2013-03-24 17:04:00,23.8,17.9,30.09,North,355,15.0,25.0,78,0.00,,,0.00,237,Wunderground v.1.15,2013-03-24 22:04:00,
2013-03-24 17:09:00,23.4,17.6,30.09,NNW,336,18.0,25.0,78,0.00,,,0.00,250,Wunderground v.1.15,2013-03-24 22:09:00,
2013-03-24 17:14:00,24.5,18.6,30.09,NNW,328,10.0,21.0,78,0.00,,,0.00,515,Wunderground v.1.15,2013-03-24 22:14:00,
2013-03-24 17:19:00,25.2,18.1,30.09,North,355,18.0,24.0,74,0.00,,,0.00,742,Wunderground v.1.15,2013-03-24 22:19:00,
2013-03-24 17:24:00,25.8,19.3,30.09,West,271,16.0,24.0,76,0.00,,,0.00,287,Wunderground v.1.15,2013-03-24 22:24:00,
2013-03-24 17:29:00,24.4,17.6,30.09,NNW,342,15.0,24.0,75,0.00,,,0.00,190,Wunderground v.1.15,2013-03-24 22:29:00,
2013-03-24 17:34:00,23.9,17.1,30.10,NNW,336,12.0,21.0,75,0.00,,,0.00,165,Wunderground v.1.15,2013-03-24 22:34:00,
2013-03-24 17:39:00,23.6,16.8,30.10,NNW,342,10.0,21.0,75,0.00,,,0.00,163,Wunderground v.1.15,2013-03-24 22:39:00,
2013-03-24 17:44:00,23.6,17.1,30.10,NNW,328,13.0,20.0,76,0.00,,,0.00,169,Wunderground v.1.15,2013-03-24 22:44:00,
2013-03-24 17:49:00,23.7,17.2,30.10,NNW,330,8.0,21.0,76,0.00,,,0.00,443,Wunderground v.1.15,2013-03-24 22:49:00,
2013-03-24 17:54:00,23.9,17.1,30.10,NNW,331,8.0,18.0,75,0.00,,,0.00,197,Wunderground v.1.15,2013-03-24 22:54:00,
2013-03-24 17:59:00,23.7,16.6,30.10,NW,326,16.0,21.0,74,0.00,,,0.00,148,Wunderground v.1.15,2013-03-24 22:59:00,
2013-03-24 18:04:00,23.8,17.0,30.11,WNW,291,6.0,18.0,75,0.00,,,0.00,323,Wunderground v.1.15,2013-03-24 23:04:00,
2013-03-24 18:09:00,24.0,17.2,30.10,NNW,333,8.0,18.0,75,0.00,,,0.00,163,Wunderground v.1.15,2013-03-24 23:09:00,
2013-03-24 18:14:00,23.9,16.8,30.10,WNW,294,13.0,16.0,74,0.00,,,0.00,357,Wunderground v.1.15,2013-03-24 23:14:00,
2013-03-24 18:19:00,24.2,17.1,30.11,NNW,327,6.0,16.0,74,0.00,,,0.00,255,Wunderground v.1.15,2013-03-24 23:19:00,
2013-03-24 18:24:00,24.3,16.9,30.11,NW,325,9.0,21.0,73,0.00,,,0.00,114,Wunderground v.1.15,2013-03-24 23:24:00,
2013-03-24 18:29:00,23.6,16.2,30.11,NW,315,10.0,21.0,73,0.00,,,0.00,236,Wunderground v.1.15,2013-03-24 23:29:00,
2013-03-24 18:34:00,23.4,16.3,30.11,NW,306,6.0,19.0,74,0.00,,,0.00,83,Wunderground v.1.15,2013-03-24 23:34:00,
2013-03-24 18:39:00,23.2,16.4,30.11,NW,313,8.0,19.0,75,0.00,,,0.00,84,Wunderground v.1.15,2013-03-24 23:39:00,
2013-03-24 18:44:00,23.2,16.8,30.11,NW,313,9.0,14.0,76,0.00,,,0.00,107,Wunderground v.1.15,2013-03-24 23:44:00,
2013-03-24 18:49:00,23.2,16.8,30.11,NW,325,11.0,15.0,76,0.00,,,0.00,95,Wunderground v.1.15,2013-03-24 23:49:00,
2013-03-24 18:54:00,23.1,16.7,30.11,NNW,345,14.0,16.0,76,0.00,,,0.00,65,Wunderground v.1.15,2013-03-24 23:54:00,
2013-03-24 18:59:00,23.1,17.0,30.11,NNW,345,7.0,19.0,77,0.00,,,0.00,60,Wunderground v.1.15,2013-03-24 23:59:00,
2013-03-24 19:04:00,22.9,17.1,30.12,North,5,8.0,20.0,78,0.00,,,0.00,51,Wunderground v.1.15,2013-03-25 00:04:00,
2013-03-24 19:09:00,22.7,17.2,30.12,NW,317,5.0,20.0,79,0.00,,,0.00,47,Wunderground v.1.15,2013-03-25 00:09:00,
2013-03-24 19:14:00,22.6,17.4,30.12,NW,320,9.0,17.0,80,0.00,,,0.00,40,Wunderground v.1.15,2013-03-25 00:14:00,
2013-03-24 19:19:00,22.6,17.4,30.12,NNW,329,8.0,17.0,80,0.00,,,0.00,35,Wunderground v.1.15,2013-03-25 00:19:00,
2013-03-24 19:24:00,22.5,17.5,30.12,NW,319,8.0,12.0,81,0.00,,,0.00,30,Wunderground v.1.15,2013-03-25 00:24:00,
2013-03-24 19:29:00,22.4,17.5,30.12,NW,312,10.0,14.0,81,0.00,,,0.00,26,Wunderground v.1.15,2013-03-25 00:29:00,
2013-03-24 19:34:00,22.5,17.8,30.12,NW,321,9.0,14.0,82,0.00,,,0.00,25,Wunderground v.1.15,2013-03-25 00:34:00,
2013-03-24 19:39:00,22.5,17.8,30.12,NW,317,10.0,15.0,82,0.00,,,0.00,14,Wunderground v.1.15,2013-03-25 00:39:00,
2013-03-24 19:44:00,22.3,17.6,30.12,NW,305,4.0,13.0,82,0.00,,,0.00,11,Wunderground v.1.15,2013-03-25 00:44:00,
2013-03-24 19:49:00,22.2,17.5,30.12,WNW,297,8.0,13.0,82,0.00,,,0.00,5,Wunderground v.1.15,2013-03-25 00:49:00,
2013-03-24 19:54:00,22.1,17.7,30.13,NW,316,8.0,14.0,83,0.00,,,0.00,0,Wunderground v.1.15,2013-03-25 00:54:00,
2013-03-24 19:59:00,22.1,17.7,30.12,NW,311,10.0,14.0,83,0.00,,,0.00,0,Wunderground v.1.15,2013-03-25 00:59:00,
2013-03-24 20:04:00,22.0,17.6,30.12,NW,322,11.0,12.0,83,0.00,,,0.00,0,Wunderground v.1.15,2013-03-25 01:04:00,
2013-03-24 20:09:00,22.0,17.6,30.13,NW,310,9.0,15.0,83,0.00,,,0.00,0,Wunderground v.1.15,2013-03-25 01:09:00,
2013-03-24 20:14:00,21.9,17.5,30.13,NW,311,9.0,12.0,83,0.00,,,0.00,0,Wunderground v.1.15,2013-03-25 01:14:00,
2013-03-24 20:19:00,21.8,17.7,30.13,NW,304,6.0,12.0,84,0.00,,,0.00,0,Wunderground v.1.15,2013-03-25 01:19:00,
2013-03-24 20:24:00,21.8,17.7,30.13,NW,304,5.0,11.0,84,0.00,,,0.00,0,Wunderground v.1.15,2013-03-25 01:24:00,
2013-03-24 20:29:00,21.8,18.0,30.13,NNW,328,9.0,12.0,85,0.00,,,0.00,0,Wunderground v.1.15,2013-03-25 01:29:00,
2013-03-24 20:34:00,21.7,17.9,30.13,NW,317,4.0,14.0,85,0.00,,,0.00,0,Wunderground v.1.15,2013-03-25 01:34:00,
2013-03-24 20:39:00,22.0,18.5,30.14,NW,313,4.0,15.0,86,0.00,,,0.00,0,Wunderground v.1.15,2013-03-25 01:39:00,
2013-03-24 20:44:00,22.2,18.7,30.14,WNW,300,6.0,11.0,86,0.00,,,0.00,0,Wunderground v.1.15,2013-03-25 01:44:00,
2013-03-24 20:49:00,22.4,18.8,30.14,WNW,302,7.0,13.0,86,0.00,,,0.00,0,Wunderground v.1.15,2013-03-25 01:49:00,
2013-03-24 20:54:00,22.6,19.0,30.14,NNW,327,4.0,8.0,86,0.00,,,0.00,0,Wunderground v.1.15,2013-03-25 01:54:00,
2013-03-24 20:59:00,22.6,19.3,30.14,WNW,289,7.0,14.0,87,0.00,,,0.00,0,Wunderground v.1.15,2013-03-25 01:59:00,
2013-03-24 21:04:00,22.6,19.3,30.14,NW,316,9.0,16.0,87,0.00,,,0.00,0,Wunderground v.1.15,2013-03-25 02:04:00,
2013-03-24 21:09:00,22.4,19.1,30.14,WNW,296,5.0,16.0,87,0.00,,,0.00,0,Wunderground v.1.15,2013-03-25 02:09:00,
2013-03-24 21:14:00,22.3,19.0,30.14,WNW,288,6.0,13.0,87,0.00,,,0.00,0,Wunderground v.1.15,2013-03-25 02:14:00,
2013-03-24 21:19:00,22.3,19.0,30.14,NW,312,7.0,14.0,87,0.00,,,0.00,0,Wunderground v.1.15,2013-03-25 02:19:00,
2013-03-24 21:24:00,22.3,19.0,30.14,NNW,334,5.0,11.0,87,0.00,,,0.00,0,Wunderground v.1.15,2013-03-25 02:24:00,
2013-03-24 21:29:00,22.3,19.0,30.14,WNW,302,12.0,12.0,87,0.00,,,0.00,0,Wunderground v.1.15,2013-03-25 02:29:00,
2013-03-24 21:34:00,22.4,19.4,30.14,NW,312,7.0,11.0,88,0.00,,,0.00,0,Wunderground v.1.15,2013-03-25 02:34:00,
2013-03-24 21:39:00,22.4,19.4,30.15,NW,320,7.0,14.0,88,0.00,,,0.00,0,Wunderground v.1.15,2013-03-25 02:39:00,
2013-03-24 21:43:00,22.4,19.4,30.15,NW,325,6.0,15.0,88,0.00,,,0.00,0,Wunderground v.1.15,2013-03-25 02:43:00,
2013-03-24 21:48:00,22.4,19.4,30.15,NNW,346,8.0,15.0,88,0.00,,,0.00,0,Wunderground v.1.15,2013-03-25 02:48:00,
2013-03-24 21:53:00,22.4,19.4,30.15,NW,307,6.0,11.0,88,0.00,,,0.00,0,Wunderground v.1.15,2013-03-25 02:53:00,
2013-03-24 21:58:00,22.4,19.4,30.15,NNW,331,9.0,13.0,88,0.00,,,0.00,0,Wunderground v.1.15,2013-03-25 02:58:00,